Regional Weather Roundup
Issued by NWS

Home | Current Version | Previous Version | Text Only | Print | Product List | Glossary On
Versions: 1 2 3 4 5 6 7 8 9 10 11 12 13 14 15 16 17 18 19 20 21 22 23 24 25 26 27 28 29 30 31 32 33 34 35 36 37 38 39 40 41 42 43 44 45 46 47 48 49 50
000
ASUS44 KMEG 050900
RWRTN
TENNESSEE HOURLY STATE WEATHER ROUNDUP
NATIONAL WEATHER SERVICE MEMPHIS TN
300 AM CST THU MAR 05 2015

TNZ002-004-019-021-049-052-054-088>092-051000-
WEST TENNESSEE

CITY           SKY/WX    TMP DP  RH WIND       PRES   REMARKS
MEMPHIS INTL   LGT SNOW  21  18  88 N17       30.25R VSB 3/4 WCI   7
NWS MEMPHIS      N/A     20 N/A N/A MISG        N/A
JACKSON        LGT SNOW  20  16  84 N17G23    30.26R VSB 1   WCI   5
DYERSBURG      CLOUDY    19   5  53 N18G26    30.33S WCI   4
UNION CITY     CLOUDY    18  16  93 N16       30.32R WCI   3
PARIS          CLOUDY    16  12  86 N10       30.26F WCI   3
LEXINGTON      CLOUDY    21  18  86 N13       30.18R WCI   9
SAVANNAH       CLOUDY    25  25 100 N12       30.13F WCI  14
$$

TNZ008-025-027-028-033-062-065-066-051000-
NORTH MIDDLE TENNESSEE

CITY           SKY/WX    TMP DP  RH WIND       PRES   REMARKS
NASHVILLE      FLURRIES  25  22  88 N15       30.18R WCI  13
CLARKSVILLE    FOG       19  16  88 N13       30.24R VSB 1/2 WCI   6
COOKEVILLE     CLOUDY    30  28  93 NE10      30.01F WCI  21
CROSSVILLE     FRZ RAIN  32  29  88 NE13G21   30.01R FOG     WCI  22
$$

TNZ061-075-076-078-094-096-097-051000-
SOUTH MIDDLE TENNESSEE

CITY           SKY/WX    TMP DP  RH WIND       PRES   REMARKS
FAYETTEVILLE   CLOUDY    30  28  93 N8          N/A  WCI  23
TULLAHOMA      CLOUDY    30  28  93 N9        30.04F WCI  22
WINCHESTER     CLOUDY    34  32  93 N13       30.01F WCI  25
COLUMBIA       CLOUDY   N/A N/A N/A N10       30.11S
SHELBYVILLE    CLOUDY    28  28 100 N10       30.09R WCI  19
$$

TNZ017-018-042-046-047-051000-
NORTHEAST TENNESSEE

CITY           SKY/WX    TMP DP  RH WIND       PRES   REMARKS
TRI CITIES     LGT RAIN  38  37  97 N10G17    29.93S FOG     WCI  31
ELIZABETHTON   LGT RAIN  41  39  93 S5        29.89F
$$

TNZ012-013-036-069-073-074-051000-
CENTRAL EAST TENNESSEE

CITY           SKY/WX    TMP DP  RH WIND       PRES   REMARKS
KNOXVILLE      HVY RAIN  37  35  92 N12       29.96F FOG     WCI  29
OAK RIDGE      RAIN      37  35  92 VRB3      30.00F FOG
GATLINBURG     CLOUDY    39  37  93 NW12      29.95S WCI  32
$$

TNZ083-085-099-051000-
SOUTHEAST TENNESSEE

CITY           SKY/WX    TMP DP  RH WIND       PRES   REMARKS
CHATTANOOGA    RAIN      41  38  89 N10       29.97F
$$

SKY/WX REPORTED AS FAIR MEANS FEW OR NO CLOUDS BELOW
12 THOUSAND FEET.




USA.gov is the U.S. government's official web portal to all federal, state and local government web resources and services.